WXM80 ListenWXM80 Stop

You find our weather info also at:

UK Metoffice

WeatherCloud

Weather Underground

Northeastern Weather Network

AWEKAS

Citizen Weather Observer Program (CWOP)

HAMweather, WeatherForYou, PWS Weather


Weather Underground History page Text

Daily Summary for January 31, 2017 Units:  Metric    English   Both
« Previous Day
Next Day »
Daily Weekly Monthly Yearly Custom
  High: Low: Average:
Temperature: 0.6 °C -3.4 °C -1.4 °C
Dew Point: -0.2 °C -11.1 °C -5.3 °C
Humidity: 95 % 48 % 77 %
Wind Speed: 13.7 km/h 0 km/h 3.2 km/h
Wind Gust: 18.5 km/h - -
Wind:- - SSE
Pressure: 1015.5 hPa 1006.7 hPa -
Precipitation: 0.76 mm    
Historical Graphs
 
 
Tabular Data for January 31, 2017
Time Temperature Dew Point Pressure Wind Wind Speed Wind Gust Humidity Rainfall Rate (Hourly)
00:04 -1.3 °C -10.9 °C 1013.4 hPa West 13.7 km/h 18.5 km/h 48 % 0 mm
00:09 -1.3 °C -10.9 °C 1013.4 hPa WNW 7.2 km/h 11.1 km/h 48 % 0 mm
00:14 -1.4 °C -10.5 °C 1013.4 hPa NW 8 km/h 14.8 km/h 50 % 0 mm
00:19 -1.4 °C -10.8 °C 1013.4 hPa WNW 6 km/h 11.1 km/h 49 % 0 mm
00:24 -1.5 °C -10.8 °C 1013.4 hPa NW 5.3 km/h 6.4 km/h 49 % 0 mm
00:29 -1.5 °C -10.6 °C 1013.4 hPa WNW 3.9 km/h 11.1 km/h 50 % 0 mm
00:34 -1.6 °C -10.9 °C 1013.8 hPa WNW 4.2 km/h 18.5 km/h 49 % 0 mm
00:39 -1.6 °C -10.9 °C 1013.8 hPa WNW 1 km/h 7.4 km/h 49 % 0 mm
00:44 -1.7 °C -11 °C 1013.8 hPa WNW 4.8 km/h 14.8 km/h 49 % 0 mm
00:49 -1.7 °C -11.1 °C 1013.8 hPa West 9 km/h 18.5 km/h 49 % 0 mm
00:54 -1.7 °C -11.1 °C 1013.8 hPa WNW 9.8 km/h 13 km/h 49 % 0 mm
00:59 -1.7 °C -10.6 °C 1013.8 hPa West 7.2 km/h 13 km/h 51 % 0 mm
01:05 -1.8 °C -10.6 °C 1013.8 hPa NW 7.7 km/h 14.8 km/h 51 % 0 mm
01:10 -1.8 °C -10.8 °C 1013.8 hPa NW 7.1 km/h 11.3 km/h 50 % 0 mm
01:15 -1.8 °C -10.6 °C 1014.1 hPa NW 8.2 km/h 14.8 km/h 51 % 0 mm
01:20 -1.8 °C -10.7 °C 1014.1 hPa NW 7.9 km/h 12.9 km/h 51 % 0 mm
01:25 -1.9 °C -10.7 °C 1014.1 hPa NW 2.9 km/h 18.5 km/h 51 % 0 mm
01:30 -1.9 °C -10.5 °C 1014.1 hPa WNW 8.9 km/h 16.7 km/h 52 % 0 mm
01:35 -1.9 °C -10.5 °C 1014.1 hPa NW 10.9 km/h 18.5 km/h 52 % 0 mm
01:40 -2 °C -10.6 °C 1014.1 hPa WNW 2.4 km/h 11.3 km/h 52 % 0 mm
01:45 -2 °C -10.3 °C 1014.1 hPa WNW 4.3 km/h 8 km/h 53 % 0 mm
01:50 -2.1 °C -10.4 °C 1014.1 hPa WNW 4.2 km/h 13 km/h 53 % 0 mm
01:55 -2.1 °C -10.2 °C 1014.1 hPa WNW 3.9 km/h 12.9 km/h 54 % 0 mm
02:00 -2.2 °C -10.5 °C 1014.4 hPa WNW 6.8 km/h 13 km/h 53 % 0 mm
02:05 -2.2 °C -10.5 °C 1014.1 hPa NW 2.7 km/h 5.6 km/h 53 % 0 mm
02:10 -2.2 °C -10.3 °C 1014.1 hPa WNW 4.2 km/h 8 km/h 54 % 0 mm
02:15 -2.3 °C -10.1 °C 1014.1 hPa WNW 5.3 km/h 7.4 km/h 55 % 0 mm
02:20 -2.3 °C -10.2 °C 1014.1 hPa WNW 2.6 km/h 4.8 km/h 55 % 0 mm
02:25 -2.3 °C -9.9 °C 1014.1 hPa West 4.7 km/h 6.4 km/h 56 % 0 mm
02:30 -2.4 °C -10 °C 1014.1 hPa NW 1.8 km/h 5.6 km/h 56 % 0 mm
02:35 -2.4 °C -10.3 °C 1014.4 hPa NW 3.5 km/h 13 km/h 55 % 0 mm
02:40 -2.5 °C -10.3 °C 1014.4 hPa West 5.5 km/h 12.9 km/h 55 % 0 mm
02:45 -2.6 °C -10.4 °C 1014.4 hPa NW 9.2 km/h 14.8 km/h 55 % 0 mm
02:50 -2.6 °C -10.4 °C 1014.8 hPa NW 4.8 km/h 11.1 km/h 55 % 0 mm
02:55 -2.6 °C -10.4 °C 1015.1 hPa WNW 5.1 km/h 11.1 km/h 55 % 0 mm
03:00 -2.6 °C -10.2 °C 1015.1 hPa NW 3.5 km/h 16.7 km/h 56 % 0 mm
03:05 -2.7 °C -10.5 °C 1015.1 hPa NW 8.7 km/h 16.1 km/h 55 % 0 mm
03:10 -2.6 °C -10.4 °C 1015.1 hPa West 4.5 km/h 6.4 km/h 55 % 0 mm
03:16 -2.7 °C -10.2 °C 1015.1 hPa West 6.4 km/h 11.1 km/h 56 % 0 mm
03:21 -2.7 °C -10.5 °C 1015.1 hPa WSW 7.1 km/h 14.5 km/h 55 % 0 mm
03:26 -2.7 °C -10.2 °C 1015.1 hPa NW 3.7 km/h 9.3 km/h 56 % 0 mm
03:31 -2.7 °C -10 °C 1015.5 hPa NNW 3.7 km/h 9.3 km/h 57 % 0 mm
03:36 -2.7 °C -10.3 °C 1015.5 hPa WSW 1.9 km/h 7.4 km/h 56 % 0 mm
03:41 -2.7 °C -10.3 °C 1015.1 hPa West 4.5 km/h 16.7 km/h 56 % 0 mm
03:46 -2.7 °C -10.3 °C 1015.1 hPa WSW 6.4 km/h 7.4 km/h 56 % 0 mm
03:51 -2.7 °C -10.2 °C 1015.1 hPa WNW 6 km/h 11.1 km/h 56 % 0 mm
03:56 -2.7 °C -10.2 °C 1015.1 hPa WNW 9.5 km/h 12.9 km/h 56 % 0 mm
04:01 -2.7 °C -10 °C 1015.1 hPa WNW 9.3 km/h 14.8 km/h 57 % 0 mm
04:06 -2.7 °C -10 °C 1015.1 hPa WSW 1.9 km/h 6.4 km/h 57 % 0 mm
04:11 -2.7 °C -10 °C 1015.1 hPa West 4.2 km/h 7.4 km/h 57 % 0 mm
04:16 -2.7 °C -10.2 °C 1015.5 hPa WSW 4.3 km/h 9.7 km/h 56 % 0 mm
04:21 -2.7 °C -10 °C 1015.1 hPa WNW 2.6 km/h 7.4 km/h 57 % 0 mm
04:26 -2.7 °C -10.3 °C 1014.8 hPa West 0.8 km/h 5.6 km/h 56 % 0 mm
04:31 -2.7 °C -10.1 °C 1014.8 hPa WNW 1.4 km/h 5.6 km/h 57 % 0 mm
04:36 -2.8 °C -10.1 °C 1014.8 hPa NW 4.8 km/h 9.3 km/h 57 % 0 mm
04:41 -2.8 °C -10.1 °C 1014.8 hPa WNW 4.7 km/h 4.8 km/h 57 % 0 mm
04:46 -2.8 °C -10.2 °C 1014.8 hPa NW 1.1 km/h 5.6 km/h 57 % 0 mm
04:51 -2.8 °C -10.2 °C 1014.8 hPa NW 0.5 km/h 5.6 km/h 57 % 0 mm
04:56 -2.9 °C -10 °C 1014.8 hPa WNW 2.9 km/h 5.6 km/h 58 % 0 mm
05:01 -2.9 °C -10.1 °C 1014.8 hPa Calm   3.7 km/h 58 % 0 mm
05:06 -2.9 °C -10.1 °C 1014.4 hPa WNW 0.6 km/h 6.4 km/h 58 % 0 mm
05:11 -3 °C -10.1 °C 1014.4 hPa Calm     58 % 0 mm
05:16 -3 °C -10.1 °C 1014.4 hPa Calm     58 % 0 mm
05:21 -3 °C -10.1 °C 1014.1 hPa WNW 1.4 km/h 5.6 km/h 58 % 0 mm
05:26 -3.1 °C -9.9 °C 1014.1 hPa NNW 3.4 km/h 5.6 km/h 59 % 0 mm
05:32 -3.1 °C -9.9 °C 1014.1 hPa NNW 3.7 km/h 5.6 km/h 59 % 0 mm
05:37 -3.1 °C -10.2 °C 1014.1 hPa NW 3.5 km/h 5.6 km/h 58 % 0 mm
05:42 -3.1 °C -10.4 °C 1014.4 hPa NNW 2.4 km/h 5.6 km/h 57 % 0 mm
05:47 -3.1 °C -10.4 °C 1014.4 hPa Calm   1.9 km/h 57 % 0 mm
05:52 -3.1 °C -10.4 °C 1014.1 hPa Calm   1.9 km/h 57 % 0 mm
05:57 -3.1 °C -10.2 °C 1014.1 hPa Calm   1.6 km/h 58 % 0 mm
06:02 -3.1 °C -9.9 °C 1014.1 hPa NNW 0.8 km/h 3.7 km/h 59 % 0 mm
06:07 -3.1 °C -9.9 °C 1014.1 hPa NNW 1 km/h 3.7 km/h 59 % 0 mm
06:12 -3.1 °C -10.2 °C 1014.1 hPa Calm     58 % 0 mm
06:17 -3.2 °C -10.3 °C 1014.4 hPa Calm     58 % 0 mm
06:22 -3.2 °C -10.1 °C 1014.4 hPa Calm     59 % 0 mm
06:27 -3.2 °C -9.9 °C 1014.4 hPa Calm     60 % 0 mm
06:32 -3.3 °C -9.9 °C 1014.1 hPa Calm     60 % 0 mm
06:37 -3.3 °C -9.7 °C 1014.1 hPa Calm     61 % 0 mm
06:42 -3.3 °C -9.6 °C 1014.4 hPa NNW 0.2 km/h 1.9 km/h 62 % 0 mm
06:47 -3.3 °C -9.6 °C 1014.1 hPa Calm     62 % 0 mm
06:52 -3.4 °C -9.4 °C 1014.1 hPa Calm     63 % 0 mm
06:57 -3.4 °C -9.4 °C 1014.1 hPa Calm     63 % 0 mm
07:02 -3.4 °C -9.4 °C 1014.1 hPa Calm     63 % 0 mm
07:07 -3.3 °C -9.2 °C 1014.1 hPa Calm     64 % 0 mm
07:12 -3.3 °C -9 °C 1014.1 hPa Calm     65 % 0 mm
07:17 -3.3 °C -9 °C 1014.1 hPa Calm     65 % 0 mm
07:22 -3.3 °C -8.8 °C 1013.8 hPa Calm     66 % 0 mm
07:27 -3.3 °C -8.7 °C 1013.8 hPa Calm     66 % 0 mm
07:32 -3.3 °C -8.6 °C 1013.8 hPa Calm     67 % 0 mm
07:38 -3.3 °C -8.6 °C 1013.8 hPa Calm     67 % 0 mm
07:43 -3.3 °C -8.6 °C 1013.8 hPa Calm     67 % 0 mm
07:48 -3.2 °C -8.5 °C 1014.1 hPa Calm     67 % 0 mm
07:53 -3.2 °C -8.7 °C 1014.1 hPa NNW 1.8 km/h 3.7 km/h 66 % 0 mm
07:58 -3.2 °C -8.5 °C 1014.1 hPa West 2.1 km/h 5.6 km/h 67 % 0 mm
08:03 -3.2 °C -8.6 °C 1014.1 hPa Calm   1.9 km/h 66 % 0 mm
08:08 -3.1 °C -8.6 °C 1014.1 hPa Calm   1.9 km/h 66 % 0 mm
08:13 -3.1 °C -8.5 °C 1013.8 hPa Calm   1.9 km/h 66 % 0 mm
08:18 -2.9 °C -8.6 °C 1014.1 hPa Calm     65 % 0 mm
08:23 -2.8 °C -8.7 °C 1013.8 hPa Calm     64 % 0 mm
08:28 -2.6 °C -8.7 °C 1013.4 hPa SE 0.3 km/h 3.7 km/h 63 % 0 mm
08:33 -2.5 °C -8.6 °C 1013.8 hPa SE 0.5 km/h 1.9 km/h 63 % 0 mm
08:38 -2.4 °C -8.7 °C 1013.8 hPa SE 1.6 km/h 3.7 km/h 62 % 0 mm
08:43 -2.3 °C -8.6 °C 1013.8 hPa SE 0.5 km/h 3.7 km/h 62 % 0 mm
08:48 -2.2 °C -8.9 °C 1013.8 hPa SE 1.3 km/h 3.7 km/h 60 % 0 mm
08:53 -2.2 °C -8.7 °C 1013.8 hPa SE 0.3 km/h 1.6 km/h 61 % 0 mm
08:58 -2.1 °C -8.8 °C 1013.8 hPa SE 0.2 km/h 3.7 km/h 60 % 0 mm
09:03 -2 °C -8.7 °C 1013.8 hPa SE 3.1 km/h 5.6 km/h 60 % 0 mm
09:08 -1.9 °C -8.8 °C 1013.4 hPa SE 1.3 km/h 3.7 km/h 59 % 0 mm
09:13 -1.8 °C -8.6 °C 1013.8 hPa SE 1.4 km/h 3.2 km/h 60 % 0 mm
09:18 -1.8 °C -8.7 °C 1013.8 hPa SE 1.1 km/h 3.7 km/h 59 % 0 mm
09:23 -1.7 °C -8.7 °C 1013.8 hPa Calm     59 % 0 mm
09:28 -1.7 °C -8.7 °C 1013.4 hPa Calm     59 % 0 mm
09:33 -1.7 °C -8.7 °C 1013.8 hPa SE 2.4 km/h 3.2 km/h 59 % 0 mm
09:38 -1.7 °C -8.8 °C 1013.8 hPa SE 1.6 km/h 6.4 km/h 58 % 0 mm
09:43 -1.7 °C -8.8 °C 1014.1 hPa SSE 3.2 km/h 6.4 km/h 58 % 0 mm
09:48 -1.6 °C -9.1 °C 1013.8 hPa Calm   3.2 km/h 57 % 0 mm
09:53 -1.6 °C -8.8 °C 1013.4 hPa ESE 0.5 km/h 3.7 km/h 58 % 0 mm
09:59 -1.6 °C -9 °C 1013.4 hPa ESE 1 km/h 3.7 km/h 57 % 0 mm
10:04 -1.6 °C -8.6 °C 1013.4 hPa ESE 2.4 km/h 4.8 km/h 59 % 0 mm
10:09 -1.6 °C -8.6 °C 1013.4 hPa ESE 1.8 km/h 5.6 km/h 59 % 0 mm
10:14 -1.6 °C -8.8 °C 1013.1 hPa ESE 1.8 km/h 5.6 km/h 58 % 0 mm
10:19 -1.6 °C -8.6 °C 1013.1 hPa East 2.1 km/h 5.6 km/h 59 % 0 mm
10:24 -1.6 °C -8.6 °C 1013.1 hPa SE 6.3 km/h 9.3 km/h 59 % 0 mm
10:29 -1.5 °C -8.7 °C 1012.8 hPa SSE 0.3 km/h 5.6 km/h 58 % 0 mm
10:34 -1.4 °C -8.4 °C 1012.8 hPa SSE 2.3 km/h 5.6 km/h 59 % 0 mm
10:39 -1.4 °C -7.9 °C 1013.1 hPa SE 1.9 km/h 6.4 km/h 61 % 0 mm
10:44 -1.3 °C -7.5 °C 1013.1 hPa SSE 4.2 km/h 11.1 km/h 63 % 0 mm
10:49 -1.3 °C -7.1 °C 1013.1 hPa South 4 km/h 6.4 km/h 65 % 0 mm
10:54 -1.3 °C -6.5 °C 1013.1 hPa SE 5.6 km/h 9.3 km/h 68 % 0 mm
10:59 -1.5 °C -6.1 °C 1013.1 hPa SE 6 km/h 7.4 km/h 71 % 0 mm
11:04 -1.6 °C -5.8 °C 1013.1 hPa SSE 7.1 km/h 9.3 km/h 73 % 0 mm
11:09 -1.6 °C -5.4 °C 1012.8 hPa SE 5.8 km/h 8 km/h 75 % 0 mm
11:14 -1.6 °C -5.1 °C 1012.8 hPa SE 4.8 km/h 9.7 km/h 77 % 0 mm
11:19 -1.7 °C -4.9 °C 1012.4 hPa SE 1.3 km/h 3.7 km/h 79 % 0 mm
11:24 -1.7 °C -4.6 °C 1012.1 hPa East 1 km/h 5.6 km/h 81 % 0 mm
11:29 -1.8 °C -4.3 °C 1012.1 hPa SE 2.3 km/h 3.7 km/h 83 % 0 mm
11:34 -1.8 °C -4.1 °C 1012.1 hPa SSE 2.1 km/h 3.2 km/h 84 % 0 mm
11:39 -1.8 °C -4.2 °C 1011.7 hPa East 3.2 km/h 5.6 km/h 84 % 0 mm
11:44 -1.9 °C -4.1 °C 1011.1 hPa East 4 km/h 9.3 km/h 85 % 0 mm
11:49 -1.9 °C -4 °C 1011.1 hPa East 5.8 km/h 8 km/h 86 % 0 mm
11:54 -1.9 °C -4 °C 1011.1 hPa East 2.9 km/h 4.8 km/h 86 % 0 mm
11:59 -2 °C -3.9 °C 1011.1 hPa East 0.6 km/h 3.7 km/h 87 % 0 mm
12:04 -2 °C -3.9 °C 1010.7 hPa East 1.1 km/h 5.6 km/h 87 % 0 mm
12:10 -2 °C -3.7 °C 1010.7 hPa ESE 1.3 km/h 3.7 km/h 88 % 0 mm
12:15 -1.9 °C -3.7 °C 1010.4 hPa East 3.2 km/h 5.6 km/h 88 % 0 mm
12:20 -1.9 °C -3.7 °C 1010.4 hPa East 3.5 km/h 5.6 km/h 88 % 0 mm
12:25 -1.9 °C -3.5 °C 1010.4 hPa East 3.5 km/h 5.6 km/h 89 % 0 mm
12:30 -1.9 °C -3.4 °C 1010.4 hPa East 0.5 km/h 3.7 km/h 89 % 0 mm
12:35 -1.8 °C -3.4 °C 1010.4 hPa East 2.3 km/h 5.6 km/h 89 % 0 mm
12:40 -1.8 °C -3.3 °C 1010 hPa East 1.1 km/h 4.8 km/h 89 % 0 mm
12:45 -1.7 °C -3.2 °C 1010 hPa East 3.4 km/h 5.6 km/h 90 % 0 mm
12:50 -1.7 °C -3.2 °C 1009.7 hPa East 2.4 km/h 3.7 km/h 89 % 0 mm
12:55 -1.7 °C -3.2 °C 1009.7 hPa ENE 3.9 km/h 5.6 km/h 89 % 0 mm
13:00 -1.7 °C -3.2 °C 1009.4 hPa East 0.8 km/h 1.9 km/h 89 % 0 mm
13:05 -1.6 °C -3.2 °C 1009.4 hPa East 2.1 km/h 5.6 km/h 89 % 0 mm
13:10 -1.6 °C -3.1 °C 1009.4 hPa East 3.9 km/h 7.4 km/h 89 % 0 mm
13:15 -1.6 °C -3.1 °C 1009 hPa SE 1.1 km/h 3.7 km/h 89 % 0 mm
13:20 -1.6 °C -3 °C 1009 hPa East 1.6 km/h 5.6 km/h 90 % 0 mm
13:25 -1.5 °C -2.9 °C 1009 hPa East 3.5 km/h 7.4 km/h 90 % 0 mm
13:30 -1.6 °C -3 °C 1008.7 hPa East 5.6 km/h 9.3 km/h 90 % 0 mm
13:35 -1.6 °C -3 °C 1008.7 hPa East 3.1 km/h 3.7 km/h 90 % 0 mm
13:40 -1.6 °C -3 °C 1008.7 hPa East 4.5 km/h 5.6 km/h 90 % 0.25 mm
13:45 -1.6 °C -2.8 °C 1008.4 hPa East 3.9 km/h 8 km/h 91 % 0.25 mm
13:50 -1.5 °C -2.8 °C 1008.4 hPa East 5.1 km/h 8 km/h 91 % 0.25 mm
13:55 -1.5 °C -2.8 °C 1008.4 hPa East 4.2 km/h 5.6 km/h 91 % 0.25 mm
14:00 -1.4 °C -2.5 °C 1007.7 hPa East 4.3 km/h 5.6 km/h 92 % 0.25 mm
14:05 -1.3 °C -2.4 °C 1007.7 hPa East 6.8 km/h 11.1 km/h 92 % 0.25 mm
14:10 -1.3 °C -2.4 °C 1007.7 hPa East 4.7 km/h 5.6 km/h 92 % 0.25 mm
14:16 -1.3 °C -2.4 °C 1007.7 hPa East 4.5 km/h 9.3 km/h 92 % 0.25 mm
14:21 -1.3 °C -2.4 °C 1007.3 hPa East 6.1 km/h 8 km/h 92 % 0.25 mm
14:26 -1.3 °C -2.4 °C 1007.3 hPa East 5.5 km/h 7.4 km/h 92 % 0.25 mm
14:31 -1.3 °C -2.4 °C 1007.3 hPa East 5 km/h 7.4 km/h 92 % 0.25 mm
14:36 -1.3 °C -2.4 °C 1007.3 hPa East 5.1 km/h 9.3 km/h 92 % 0.51 mm
14:41 -1.3 °C -2.4 °C 1007.3 hPa ENE 6.8 km/h 9.3 km/h 92 % 0.25 mm
14:46 -1.3 °C -2.3 °C 1007.3 hPa East 6.3 km/h 9.7 km/h 93 % 0.25 mm
14:51 -1.3 °C -2.3 °C 1007 hPa ENE 6.4 km/h 11.1 km/h 93 % 0.25 mm
14:56 -1.3 °C -2.3 °C 1007 hPa East 7.6 km/h 11.1 km/h 93 % 0.25 mm
15:01 -1.2 °C -2.2 °C 1007.3 hPa ENE 4.7 km/h 5.6 km/h 93 % 0.25 mm
15:06 -1.2 °C -2.2 °C 1007 hPa ENE 6.8 km/h 11.1 km/h 93 % 0.51 mm
15:11 -1.1 °C -2.1 °C 1007 hPa East 4.8 km/h 7.4 km/h 93 % 0.51 mm
15:16 -1.1 °C -2.1 °C 1007 hPa ENE 8.4 km/h 9.3 km/h 93 % 0.51 mm
15:21 -1 °C -1.8 °C 1007 hPa East 8.2 km/h 11.3 km/h 94 % 0.51 mm
15:26 -0.9 °C -1.8 °C 1007 hPa East 10.1 km/h 14.8 km/h 94 % 0.51 mm
15:31 -0.9 °C -1.7 °C 1007 hPa East 6.3 km/h 8 km/h 94 % 0.51 mm
15:36 -0.9 °C -1.9 °C 1007 hPa East 10.6 km/h 14.8 km/h 93 % 0.25 mm
15:41 -0.9 °C -1.9 °C 1007 hPa East 5.1 km/h 7.4 km/h 93 % 0.25 mm
15:46 -0.9 °C -1.9 °C 1006.7 hPa East 12.9 km/h 14.8 km/h 93 % 0.25 mm
15:51 -0.9 °C -1.9 °C 1007 hPa East 4.7 km/h 13 km/h 93 % 0.25 mm
15:56 -0.9 °C -1.9 °C 1007 hPa East 5.8 km/h 9.3 km/h 93 % 0.25 mm
16:01 -0.9 °C -1.9 °C 1007.3 hPa East 5.3 km/h 13 km/h 93 % 0.25 mm
16:06 -0.8 °C -1.8 °C 1007.3 hPa East 7.2 km/h 8 km/h 93 % 0 mm
16:12 -0.8 °C -1.8 °C 1007 hPa East 5.8 km/h 13 km/h 93 % 0 mm
16:17 -0.7 °C -1.5 °C 1007.3 hPa East 6 km/h 9.7 km/h 94 % 0 mm
16:22 -0.6 °C -1.4 °C 1007.3 hPa East 4.7 km/h 9.3 km/h 94 % 0 mm
16:27 -0.6 °C -1.4 °C 1007.3 hPa East 8 km/h 14.8 km/h 94 % 0 mm
16:32 -0.5 °C -1.3 °C 1007 hPa East 6.3 km/h 9.3 km/h 94 % 0 mm
16:37 -0.4 °C -1.3 °C 1007.7 hPa NNE 2.7 km/h 5.6 km/h 94 % 0 mm
16:42 -0.4 °C -1.2 °C 1007.3 hPa East 10.8 km/h 14.5 km/h 94 % 0 mm
16:47 -0.3 °C -1.2 °C 1007.3 hPa East 8.2 km/h 11.3 km/h 94 % 0 mm
16:52 -0.3 °C -1.3 °C 1008 hPa Calm     93 % 0 mm
16:57 -0.3 °C -1.3 °C 1007.7 hPa East 4.3 km/h 8 km/h 93 % 0 mm
17:02 -0.3 °C -1.3 °C 1008 hPa ENE 3.5 km/h 7.4 km/h 93 % 0 mm
17:07 -0.2 °C -1.2 °C 1008 hPa ESE 3.2 km/h 5.6 km/h 93 % 0 mm
17:12 -0.2 °C -1.2 °C 1008.4 hPa East 3.1 km/h 5.6 km/h 93 % 0 mm
17:17 -0.2 °C -1.2 °C 1008 hPa East 2.1 km/h 5.6 km/h 93 % 0 mm
17:22 -0.2 °C -1.2 °C 1008 hPa East 0.8 km/h 3.2 km/h 93 % 0 mm
17:27 -0.1 °C -1.1 °C 1008 hPa East 2.3 km/h 3.7 km/h 93 % 0 mm
17:32 -0.2 °C -1.2 °C 1008 hPa East 0.2 km/h 1.6 km/h 93 % 0 mm
17:37 -0.2 °C -1.2 °C 1008 hPa East 2.7 km/h 4.8 km/h 93 % 0 mm
17:42 -0.2 °C -1.2 °C 1008 hPa East 1.9 km/h 3.7 km/h 93 % 0 mm
17:47 -0.2 °C -1.2 °C 1008 hPa East 1.6 km/h 3.7 km/h 93 % 0 mm
17:52 -0.1 °C -1.1 °C 1008 hPa East 2.4 km/h 5.6 km/h 93 % 0 mm
17:57 -0.1 °C -1.1 °C 1008.4 hPa East 2.7 km/h 5.6 km/h 93 % 0 mm
18:02 -0.1 °C -0.9 °C 1008.4 hPa East 4.5 km/h 8 km/h 94 % 0 mm
18:07 0 °C -0.8 °C 1008.4 hPa East 4 km/h 7.4 km/h 94 % 0 mm
18:13 0.1 °C -0.8 °C 1008.7 hPa East 3.5 km/h 3.7 km/h 94 % 0 mm
18:18 0.1 °C -0.8 °C 1008.4 hPa East 3.5 km/h 7.4 km/h 94 % 0 mm
18:23 0.1 °C -0.7 °C 1008.7 hPa East 3.9 km/h 7.4 km/h 94 % 0 mm
18:28 0.2 °C -0.7 °C 1008.7 hPa ENE 2.3 km/h 5.6 km/h 94 % 0 mm
18:33 0.2 °C -0.6 °C 1008.7 hPa East 1.6 km/h 3.7 km/h 94 % 0 mm
18:38 0.2 °C -0.6 °C 1008.7 hPa ESE 3.9 km/h 5.6 km/h 94 % 0 mm
18:43 0.3 °C -0.6 °C 1008.7 hPa East 3.1 km/h 5.6 km/h 94 % 0 mm
18:48 0.2 °C -0.6 °C 1008.7 hPa East 0.2 km/h 1.9 km/h 94 % 0 mm
18:53 0.3 °C -0.6 °C 1008.7 hPa East 1.4 km/h 3.7 km/h 94 % 0 mm
18:58 0.3 °C -0.6 °C 1008.7 hPa East 0.5 km/h 3.2 km/h 94 % 0 mm
19:03 0.3 °C -0.6 °C 1009 hPa East 0.6 km/h 1.9 km/h 94 % 0 mm
19:08 0.3 °C -0.6 °C 1009 hPa East 1.3 km/h 3.7 km/h 94 % 0 mm
19:13 0.3 °C -0.6 °C 1009 hPa East 0.5 km/h 3.7 km/h 94 % 0 mm
19:18 0.3 °C -0.6 °C 1009 hPa Calm     94 % 0 mm
19:23 0.3 °C -0.6 °C 1009 hPa East 3.9 km/h 5.6 km/h 94 % 0 mm
19:28 0.4 °C -0.3 °C 1009 hPa East 2.1 km/h 3.7 km/h 95 % 0 mm
19:33 0.4 °C -0.3 °C 1009 hPa ENE 10.6 km/h 14.8 km/h 95 % 0 mm
19:38 0.6 °C -0.2 °C 1009 hPa ENE 10.8 km/h 14.8 km/h 95 % 0 mm
19:43 0.6 °C -0.2 °C 1009.4 hPa WSW 4.7 km/h 5.6 km/h 95 % 0 mm
19:48 0.6 °C -0.2 °C 1009 hPa ENE 8.5 km/h 11.3 km/h 95 % 0 mm
19:53 0.5 °C -0.3 °C 1009 hPa ENE 3.2 km/h 11.3 km/h 94 % 0 mm
19:59 0.4 °C -0.4 °C 1009 hPa ENE 6 km/h 13 km/h 94 % 0 mm
20:04 0.4 °C -0.4 °C 1009 hPa ENE 4.2 km/h 14.8 km/h 94 % 0 mm
20:09 0.4 °C -0.3 °C 1009 hPa East 3.5 km/h 8 km/h 95 % 0 mm
20:14 0.4 °C -0.3 °C 1009 hPa ENE 4.3 km/h 5.6 km/h 95 % 0 mm
20:19 0.3 °C -0.4 °C 1009 hPa ENE 4.2 km/h 7.4 km/h 95 % 0 mm
20:24 0.3 °C -0.4 °C 1009 hPa ENE 5.6 km/h 11.1 km/h 95 % 0 mm
20:29 0.3 °C -0.4 °C 1009 hPa ENE 7.2 km/h 11.1 km/h 95 % 0 mm
20:34 0.3 °C -0.4 °C 1009 hPa ENE 5.3 km/h 7.4 km/h 95 % 0 mm
20:39 0.2 °C -0.5 °C 1009 hPa ENE 4 km/h 5.6 km/h 95 % 0 mm
20:44 0.3 °C -0.4 °C 1009 hPa ENE 3.7 km/h 5.6 km/h 95 % 0 mm
20:49 0.3 °C -0.4 °C 1009 hPa NE 6.6 km/h 7.4 km/h 95 % 0 mm
20:54 0.3 °C -0.4 °C 1009 hPa ENE 5 km/h 7.4 km/h 95 % 0 mm
20:59 0.3 °C -0.4 °C 1009 hPa ENE 4.8 km/h 7.4 km/h 95 % 0 mm
21:04 0.3 °C -0.4 °C 1009 hPa ENE 3.9 km/h 5.6 km/h 95 % 0 mm
21:09 0.3 °C -0.4 °C 1009 hPa ENE 4 km/h 5.6 km/h 95 % 0 mm
21:14 0.3 °C -0.4 °C 1009 hPa ENE 3.4 km/h 5.6 km/h 95 % 0 mm
21:19 0.3 °C -0.4 °C 1009 hPa NE 6.9 km/h 11.1 km/h 95 % 0 mm
21:24 0.3 °C -0.4 °C 1009 hPa East 4.2 km/h 7.4 km/h 95 % 0 mm
21:29 0.3 °C -0.4 °C 1009 hPa ENE 4 km/h 5.6 km/h 95 % 0 mm
21:30 0.3 °C -0.4 °C 1009 hPa ENE 3.7 km/h 5.6 km/h 95 % 0 mm
21:35 0.3 °C -0.4 °C 1009 hPa ENE 1.1 km/h 5.6 km/h 95 % 0 mm
21:40 0.3 °C -0.4 °C 1009.4 hPa Calm   3.7 km/h 95 % 0 mm
21:45 0.3 °C -0.4 °C 1009.4 hPa Calm     95 % 0 mm
21:51 0.3 °C -0.4 °C 1009.4 hPa ENE 0.3 km/h   95 % 0 mm
21:56 0.2 °C -0.5 °C 1009.4 hPa Calm     95 % 0 mm
22:01 0.2 °C -0.5 °C 1009.7 hPa Calm     95 % 0 mm
22:06 0.3 °C -0.4 °C 1009.4 hPa Calm     95 % 0 mm
22:11 0.3 °C -0.4 °C 1009.7 hPa Calm     95 % 0 mm
22:16 0.2 °C -0.5 °C 1009.7 hPa ENE 1.9 km/h 3.7 km/h 95 % 0 mm
22:21 0.2 °C -0.6 °C 1009.7 hPa ENE 0.2 km/h 1.9 km/h 95 % 0 mm
22:26 0.2 °C -0.6 °C 1009.4 hPa ENE 0.8 km/h 3.7 km/h 95 % 0 mm
22:31 0.2 °C -0.6 °C 1009.7 hPa Calm   3.7 km/h 95 % 0 mm
22:36 0.2 °C -0.6 °C 1009.7 hPa Calm     95 % 0 mm
22:41 0.2 °C -0.6 °C 1009.4 hPa Calm     95 % 0 mm
22:46 0.1 °C -0.6 °C 1009.4 hPa Calm   3.7 km/h 95 % 0 mm
22:51 0.1 °C -0.6 °C 1009.4 hPa Calm     95 % 0 mm
22:56 0.1 °C -0.6 °C 1009.7 hPa Calm     95 % 0 mm
23:01 0.1 °C -0.6 °C 1009.4 hPa Calm     95 % 0 mm
23:06 0.1 °C -0.6 °C 1009.7 hPa Calm     95 % 0 mm
23:11 0.2 °C -0.6 °C 1009.7 hPa Calm     95 % 0 mm
23:16 0.1 °C -0.6 °C 1009.7 hPa Calm     95 % 0 mm
23:21 0.1 °C -0.7 °C 1009.7 hPa Calm     95 % 0 mm
23:26 0 °C -0.7 °C 1009.7 hPa Calm     95 % 0 mm
23:31 -0.1 °C -0.8 °C 1009.4 hPa Calm     95 % 0 mm
23:36 -0.1 °C -0.8 °C 1009.4 hPa Calm     95 % 0 mm
23:41 -0.1 °C -0.8 °C 1009.4 hPa Calm     95 % 0 mm
23:46 -0.1 °C -0.8 °C 1009.4 hPa Calm     95 % 0 mm
23:51 -0.1 °C -0.9 °C 1009.4 hPa Calm     94 % 0 mm
23:57 -0.2 °C -1 °C 1009.4 hPa Calm     94 % 0 mm
Crab Meadow Weather
Compliments of Weather Underground - 3 mb

Script developed by  Jim McMurry - jmcmurry@mwt.net Adapted for the template by  Wim van der Kuil - Leuven-Template.eu

Weather Terms: Rain/Showers - Rain is a nearly steady and uniform fall of precipitation over an area. Showers are intermittent and/or scattered convective rainfall of varying intensity.